Location: Camerons Lookout
(40.9833°S, 175.9333°E)
Time: 08:01:48
(UTC+00:00)

Cosmos 1867 - Pass Details

Date: 14 January 2026
Orbit: 777 x 797 km, 65.0° (Epoch: 15 February)

Event Time Altitude Azimuth Distance (km) Brightness Sun altitude
Rises 10:11:22 0° 219° (SW) 3,290 8.4 -20.4°
Reaches altitude 10° 10:13:53 10° 225° (SW) 2,355 7.2 -20.7°
Maximum altitude 10:18:59 44° 295° (WNW) 1,086 4.3 -21.2°
Enters shadow 10:20:50 32° 341° (NNW) 1,324 4.4 -21.4°
